STARLINK-34700, 64922

Orbit data source: Space-Track

STARLINK-34700, 64922 is a payload satellite owned by SpaceX/Seattle (US) in LEO that was launched on Sat, 26 Jul 2025 UTC via an FALCON 9 launch vehicle from the Air Force Eastern Test Range (AFETR). Payload-class satellites include a variety of spacecraft equipped with specific instruments for various scientific and technological missions. These include communications satellites like Starlink; space stations such as the ISS; scientific satellites like the Hubble; Earth observation satellites from companies like Planet Labs, Umbra, and HawkEye 360; GPS; miniature CubeSats for education and research; and military/defense satellites.

Loading next visibility...
Identifier
64922, 2025-157U
Orbit
LEO
Country
Flag of USUS
Related business
Manufacturer
SpaceX/Seattle
Mission
Operational Commercial Communications
Bus & Motor
STARLINK V2MO, Unknown motor
Mass
575 kg wet, ~530 kg dry
Launch date (UTC)
2025-07-26 (4 months ago)
Launch vehicle
FALCON 9
Launch site
Air Force Eastern Test Range (AFETR)
Object type
Payload
Rocket body
Debris
Shape & HBR
Box + 2 Pan, 17.7 m
Radar Cross Section
36.964 m², Large (>1 m²)

Expand to show TLE details & history
Last TLE update: 2 days ago

TLE from 2 days ago
0 STARLINK-34700
1 64922U 25157U   25339.57371427  .00054758  00000-0  13686-2 0  9996
2 64922  53.1599  67.1308 0001545  72.8587 287.2587 15.39632108 21600
Epoch: 2025-12-05T13:46Z
TLE epoch observation values (Epoch: 2025-12-05T13:46:08.912Z)
Latitude
-0.00004°
Longitude
145.97978°
Altitude
447.787 km
Speed
7.645 km/s
True Right ascension
04h 28m 31s
True Declination
0° 00' 00"
Sunlit
Object was in full shadow at epoch
Visualization orbit readout
Latitude
Unknown
Longitude
Unknown
Altitude
Unknown
Speed
Unknown
Apparent Right ascension
Unknown
Apparent Declination
Unknown
Sunlit
N/A
Visualization observer readout
Local Sidereal Time
02:29:58
Azimuth
Unknown
Elevation
Unknown
Doppler factor
Unknown
Orbital elements
Apogee altitude
448.508 km
Perigee altitude
446.399 km
Semi-major axis
6,825.591 km
Eccentricity
0.00015
Inclination
53.1599°
RAAN
67.1308°
Arg. of periapsis
72.8587°
True anomaly
287.24179°
Mean anomaly
287.2587°
Eccentric anomaly
287.25025°
Mean motion
3.84887 °/min
Orbital period
93.53 mins
BSTAR
0.0013686
Loading maneuver chart data...
Computing Atmospheric mass density...
Loading historical data...
Loading historical data...
Loading historical data...
Loading historical data...
Loading historical data...
Loading historical data...
Loading historical data...

Documentation

Showing up to 5 results
|